Temp
-4 -4 -4 -4 -3 -3 -3 -3 -3 -3 -3 -3 -3 -4 -3 -4 -4 -4 -5 -5 -5 -5 -5 -5 -5 -5 -6 -5 -6 -5 -5 -5 -6 -6 -6 -6 -6 -7 -7 -7 -7 -7 -6 -7 -7
-4 -4 -4 -4 -3 -3 -3 -3 -3 -3 -3 -3 -3 -3 -3 -4 -4 -4 -5 -5 -5 -5 -5 -5 -5 -5 -5 -5 -6 -6 -5 -6 -6 -6 -6 -5 -6 -7 -7 -7 -7 -7 -6 -7 -7
-4 -4 -4 -4 -4 -3 -3 -3 -3 -3 -3 -3 -3 -3 -3 -3 -4 -4 -5 -5 -5 -5 -5 -5 -6 -5 -5 -5 -6 -6 -6 -5 -6 -6 -6 -5 -6 -6 -6 -7 -7 -7 -6 -7 -6
-4 -4 -4 -4 -4 -3 -3 -3 -3 -3 -3 -3 -3 -3 -3 -3 -4 -4 -5 -5 -5 -5 -5 -6 -6 -6 -6 -6 -6 -6 -5 -6 -6 -6 -6 -5 -6 -6 -6 -7 -7 -6 -6 -7 -6
-4 -4 -4 -4 -4 -3 -3 -3 -3 -3 -3 -3 -3 -4 -4 -4 -4 -4 -5 -5 -6 -6 -6 -6 -6 -6 -6 -6 -6 -5 -5 -5 -5 -6 -6 -6 -6 -6 -6 -6 -6 -6 -7 -6 -6
-5 -5 -4 -4 -4 -4 -4 -4 -3 -3 -3 -4 -4 -4 -4 -4 -5 -5 -6 -6 -6 -7 -6 -7 -6 -6 -6 -6 -6 -6 -6 -6 -5 -6 -6 -6 -6 -6 -7 -6 -6 -6 -6 -6 -6
-5 -5 -5 -4 -4 -4 -4 -4 -4 -4 -4 -4 -4 -5 -5 -5 -5 -6 -6 -7 -7 -7 -7 -7 -7 -6 -6 -6 -6 -6 -6 -6 -6 -6 -6 -6 -6 -6 -6 -6 -6 -6 -6 -6 -6
-5 -5 -5 -5 -5 -4 -4 -4 -4 -4 -4 -4 -5 -5 -6 -6 -6 -6 -7 -7 -7 -7 -8 -7 -7 -7 -7 -6 -6 -6 -7 -6 -6 -6 -6 -6 -6 -7 -7 -6 -6 -6 -6 -6 -6
-5 -5 -5 -5 -5 -5 -5 -4 -4 -4 -4 -5 -6 -6 -6 -6 -6 -6 -7 -7 -8 -8 -8 -8 -8 -7 -7 -7 -7 -7 -7 -7 -7 -7 -6 -6 -6 -7 -7 -7 -7 -6 -6 -6 -6
-5 -5 -5 -5 -5 -5 -5 -5 -5 -5 -5 -5 -6 -6 -6 -6 -6 -6 -6 -7 -8 -8 -8 -8 -8 -8 -8 -7 -8 -8 -8 -7 -7 -7 -7 -7 -6 -6 -7 -7 -7 -7 -6 -6 -6
-6 -6 -6 -5 -5 -5 -5 -5 -5 -5 -5 -5 -6 -6 -6 -6 -6 -6 -7 -7 -8 -8 -8 -8 -9 -9 -10 -7 -8 -8 -8 -8 -8 -7 -7 -7 -7 -6 -7 -7 -7 -7 -7 -7 -7
-6 -6 -6 -6 -6 -5 -5 -5 -5 -5 -5 -5 -6 -6 -6 -6 -6 -7 -7 -7 -8 -8 -9 -9 -9 -10 -8 -8 -8 -8 -8 -8 -8 -8 -7 -7 -7 -7 -7 -7 -7 -7 -6 -6 -7
-6 -6 -6 -6 -6 -6 -6 -6 -6 -5 -5 -5 -6 -6 -7 -7 -7 -7 -7 -7 -8 -8 -8 -9 -8 -8 -8 -8 -8 -9 -8 -8 -8 -8 -8 -8 -8 -8 -8 -7 -7 -7 -7 -7 -6
-6 -6 -6 -6 -6 -6 -6 -6 -6 -6 -6 -6 -6 -6 -7 -7 -7 -7 -7 -8 -8 -8 -9 -8 -7 -8 -8 -9 -9 -10 -9 -9 -8 -8 -9 -9 -7 -8 -8 -8 -8 -7 -8 -7 -7
-6 -6 -6 -6 -6 -6 -6 -6 -6 -6 -6 -6 -6 -7 -7 -7 -7 -7 -7 -8 -8 -8 -9 -9 -9 -9 -9 -10 -10 -10 -9 -9 -9 -9 -9 -8 -8 -10 -9 -8 -8 -8 -8 -7 -7
-6 -6 -6 -6 -6 -6 -6 -7 -7 -7 -6 -6 -6 -7 -7 -7 -7 -7 -7 -8 -8 -8 -8 -9 -9 -9 -10 -10 -10 -10 -10 -10 -9 -10 -10 -10 -9 -10 -10 -9 -9 -8 -8 -8 -8
-6 -7 -7 -7 -6 -6 -6 -7 -7 -7 -7 -7 -7 -7 -7 -8 -7 -7 -8 -8 -8 -8 -9 -9 -9 -9 -10 -10 -10 -10 -11 -10 -10 -10 -9 -9 -9 -10 -10 -9 -9 -9 -8 -8 -8
-7 -7 -7 -7 -7 -7 -7 -7 -7 -7 -7 -7 -7 -7 -7 -8 -8 -8 -8 -8 -8 -8 -9 -10 -10 -9 -9 -10 -12 -10 -11 -10 -10 -10 -9 -10 -9 -10 -9 -8 -9 -9 -9 -8 -8
-7 -7 -7 -7 -7 -7 -7 -7 -7 -7 -7 -7 -7 -8 -8 -8 -9 -8 -9 -9 -9 -9 -10 -10 -11 -10 -9 -10 -10 -11 -10 -11 -11 -11 -10 -10 -11 -9 -9 -8 -8 -8 -9 -9 -9
-6 -6 -7 -7 -7 -8 -8 -8 -7 -7 -8 -8 -8 -8 -9 -8 -9 -9 -9 -9 -9 -9 -9 -10 -11 -10 -10 -10 -10 -10 -11 -11 -11 -10 -10 -10 -10 -10 -9 -9 -8 -8 -9 -9 -9
-7 -7 -6 -7 -7 -7 -8 -8 -8 -8 -8 -8 -8 -8 -9 -9 -9 -9 -10 -10 -10 -10 -10 -11 -11 -11 -11 -11 -11 -11 -10 -10 -11 -11 -11 -10 -10 -10 -9 -9 -9 -9 -9 -9 -9
-8 -8 -7 -7 -7 -7 -8 -8 -9 -8 -8 -8 -8 -8 -9 -10 -9 -9 -10 -11 -10 -10 -11 -11 -12 -11 -11 -10 -11 -11 -11 -10 -11 -11 -11 -10 -10 -10 -9 -9 -9 -9 -9 -9 -9
-8 -8 -8 -7 -7 -7 -7 -9 -9 -9 -9 -9 -9 -9 -9 -9 -10 -10 -10 -10 -10 -10 -11 -11 -12 -12 -11 -11 -11 -11 -10 -10 -10 -11 -11 -11 -11 -11 -10 -10 -10 -10 -9 -9 -9
-8 -8 -8 -8 -8 -8 -8 -8 -9 -10 -10 -9 -9 -9 -10 -10 -10 -10 -10 -10 -10 -10 -10 -10 -12 -12 -11 -11 -11 -10 -10 -10 -10 -12 -12 -11 -12 -12 -10 -10 -10 -10 -10 -9 -9
-8 -8 -8 -8 -7 -8 -8 -8 -9 -10 -10 -10 -10 -10 -10 -10 -11 -11 -11 -10 -10 -10 -10 -11 -12 -12 -12 -11 -11 -11 -11 -10 -11 -11 -10 -11 -11 -10 -11 -9 -10 -10 -10 -10 -9
-8 -8 -8 -8 -8 -8 -8 -9 -9 -10 -11 -11 -11 -11 -11 -11 -12 -12 -12 -12 -11 -11 -11 -11 -12 -11 -12 -11 -11 -10 -11 -11 -10 -10 -10 -10 -10 -10 -9 -9 -10 -10 -10 -10 -9
-8 -8 -9 -9 -9 -9 -9 -9 -10 -10 -11 -11 -11 -11 -12 -12 -11 -12 -11 -12 -12 -11 -12 -11 -13 -12 -13 -12 -11 -11 -11 -11 -10 -10 -10 -10 -10 -9 -10 -9 -9 -10 -10 -9 -10
Height
5894 5893 5892 5891 5891 5890 5889 5889 5888 5888 5888 5887 5887 5887 5887 5887 5887 5889 5889 5889 5889 5888 5888 5888 5888 5887 5887 5887 5886 5887 5887 5885 5883 5884 5886 5885 5884 5884 5882 5881 5880 5880 5881 5881 5881
5896 5894 5894 5893 5892 5891 5890 5889 5888 5888 5887 5887 5887 5886 5885 5885 5885 5887 5888 5888 5888 5888 5888 5888 5888 5887 5886 5886 5886 5885 5885 5883 5881 5882 5884 5884 5885 5884 5884 5881 5881 5881 5881 5881 5882
5897 5896 5894 5893 5892 5891 5891 5890 5889 5888 5887 5887 5886 5885 5884 5883 5883 5884 5885 5886 5886 5887 5887 5887 5886 5886 5886 5886 5885 5884 5883 5881 5880 5881 5884 5884 5885 5884 5884 5882 5882 5881 5882 5882 5882
5898 5897 5896 5894 5893 5892 5891 5890 5889 5888 5887 5886 5885 5884 5882 5882 5883 5881 5882 5883 5884 5885 5886 5885 5885 5886 5885 5885 5885 5885 5883 5881 5880 5881 5883 5885 5885 5885 5884 5883 5882 5881 5883 5883 5883
5899 5898 5896 5895 5893 5892 5891 5890 5889 5888 5886 5885 5883 5882 5881 5879 5879 5878 5878 5880 5881 5883 5884 5884 5885 5885 5885 5885 5885 5884 5883 5882 5880 5880 5882 5885 5885 5885 5884 5883 5883 5883 5883 5883 5884
5900 5899 5897 5895 5894 5892 5891 5890 5888 5886 5884 5883 5881 5879 5878 5877 5875 5874 5875 5877 5878 5880 5882 5882 5883 5884 5884 5884 5884 5883 5882 5882 5881 5879 5881 5883 5885 5885 5884 5884 5884 5885 5885 5883 5883
5900 5899 5897 5896 5894 5893 5892 5890 5888 5886 5883 5881 5879 5877 5876 5875 5872 5872 5871 5873 5875 5877 5879 5879 5881 5882 5883 5884 5883 5883 5883 5883 5883 5881 5882 5882 5884 5883 5884 5885 5884 5885 5885 5884 5883
5898 5897 5896 5895 5894 5892 5891 5889 5887 5884 5881 5878 5875 5874 5873 5871 5870 5869 5869 5870 5872 5874 5876 5877 5879 5880 5882 5883 5884 5884 5885 5884 5884 5883 5883 5883 5883 5884 5885 5885 5885 5885 5885 5884 5883
5896 5895 5894 5893 5892 5891 5889 5887 5885 5882 5878 5874 5873 5871 5871 5869 5868 5867 5867 5868 5870 5872 5874 5875 5877 5878 5880 5883 5884 5884 5884 5884 5884 5883 5883 5883 5882 5884 5884 5885 5885 5885 5885 5885 5884
5894 5893 5892 5890 5890 5889 5887 5885 5883 5880 5876 5873 5871 5870 5868 5867 5865 5864 5864 5866 5868 5870 5872 5874 5874 5877 5879 5882 5885 5883 5884 5884 5884 5885 5884 5884 5883 5884 5884 5885 5885 5885 5886 5886 5886
5890 5889 5889 5887 5887 5886 5885 5883 5882 5880 5875 5872 5870 5867 5865 5863 5861 5861 5861 5863 5865 5868 5870 5871 5873 5875 5878 5880 5880 5881 5883 5884 5884 5885 5886 5885 5885 5885 5885 5885 5886 5886 5886 5886 5887
5886 5885 5884 5884 5883 5882 5882 5881 5879 5878 5874 5871 5868 5866 5863 5861 5859 5858 5858 5860 5862 5866 5867 5869 5871 5872 5875 5877 5879 5880 5883 5885 5886 5886 5887 5886 5886 5885 5885 5885 5886 5887 5886 5886 5885
5882 5881 5881 5880 5879 5879 5878 5878 5876 5874 5873 5870 5867 5864 5861 5860 5857 5856 5856 5857 5859 5863 5865 5866 5869 5870 5873 5875 5877 5880 5882 5883 5885 5885 5886 5887 5886 5885 5885 5885 5885 5885 5886 5886 5887
5879 5877 5877 5876 5877 5875 5875 5874 5873 5872 5870 5869 5865 5863 5861 5858 5856 5855 5854 5856 5857 5859 5861 5863 5865 5868 5871 5874 5876 5878 5878 5881 5882 5885 5885 5886 5889 5885 5884 5884 5883 5884 5885 5886 5886
5874 5874 5873 5872 5872 5872 5872 5870 5870 5869 5869 5868 5864 5862 5860 5858 5857 5854 5853 5854 5855 5857 5860 5862 5864 5868 5870 5872 5873 5875 5876 5879 5880 5882 5884 5884 5886 5884 5882 5883 5884 5883 5883 5884 5884
5870 5870 5869 5869 5868 5867 5867 5867 5867 5868 5865 5865 5863 5860 5859 5857 5856 5854 5854 5853 5854 5856 5857 5859 5862 5864 5866 5867 5870 5872 5874 5876 5878 5880 5885 5882 5883 5886 5882 5881 5882 5883 5882 5881 5882
5864 5864 5864 5863 5864 5863 5863 5863 5864 5863 5863 5862 5860 5858 5857 5856 5855 5854 5854 5854 5855 5856 5858 5859 5860 5862 5864 5866 5868 5870 5875 5881 5883 5883 5884 5876 5879 5882 5876 5877 5879 5880 5881 5880 5881
5857 5857 5857 5857 5857 5858 5858 5859 5859 5859 5858 5858 5857 5856 5855 5855 5855 5854 5853 5854 5854 5855 5857 5858 5861 5861 5862 5864 5869 5869 5874 5880 5880 5881 5883 5874 5874 5877 5875 5875 5876 5876 5876 5878 5878
5846 5847 5848 5848 5849 5851 5852 5853 5853 5853 5854 5853 5854 5854 5854 5853 5854 5854 5853 5854 5854 5855 5857 5858 5860 5860 5861 5862 5865 5868 5867 5872 5872 5873 5872 5874 5870 5871 5872 5872 5872 5872 5872 5873 5875
5840 5840 5839 5840 5840 5841 5844 5846 5846 5847 5848 5849 5850 5851 5852 5851 5852 5852 5852 5853 5853 5853 5854 5856 5858 5858 5859 5860 5862 5863 5866 5868 5869 5869 5869 5871 5867 5869 5866 5867 5869 5867 5868 5868 5870
5834 5834 5833 5833 5832 5833 5835 5837 5838 5840 5842 5844 5845 5847 5848 5849 5849 5850 5852 5851 5851 5851 5852 5854 5857 5857 5857 5858 5860 5861 5862 5863 5865 5865 5866 5868 5870 5862 5862 5861 5862 5863 5863 5863 5864
5826 5826 5826 5826 5826 5826 5827 5828 5830 5832 5835 5837 5840 5842 5843 5844 5846 5847 5848 5850 5849 5849 5850 5851 5856 5858 5857 5852 5854 5856 5857 5858 5860 5864 5860 5859 5862 5857 5857 5856 5856 5857 5857 5858 5859
5819 5819 5819 5819 5819 5819 5819 5820 5821 5823 5827 5830 5832 5834 5838 5839 5842 5842 5844 5844 5845 5846 5847 5848 5851 5853 5851 5851 5850 5850 5851 5852 5852 5854 5854 5856 5860 5852 5850 5849 5849 5850 5852 5852 5853
5812 5811 5811 5811 5811 5810 5811 5811 5813 5815 5818 5821 5823 5827 5830 5833 5835 5837 5838 5838 5839 5841 5843 5844 5847 5847 5851 5847 5845 5844 5845 5845 5845 5846 5849 5851 5849 5846 5842 5841 5841 5842 5844 5846 5846
5804 5803 5802 5802 5802 5802 5802 5803 5803 5806 5808 5812 5815 5818 5821 5826 5829 5831 5833 5833 5834 5835 5836 5839 5839 5838 5839 5838 5839 5840 5839 5838 5838 5837 5836 5838 5836 5835 5833 5831 5832 5833 5834 5837 5839
5795 5794 5793 5792 5792 5792 5792 5793 5794 5795 5800 5803 5805 5807 5813 5818 5821 5824 5826 5828 5828 5829 5830 5832 5834 5833 5833 5833 5833 5832 5832 5831 5830 5830 5828 5827 5827 5824 5823 5822 5822 5824 5825 5827 5829
5785 5784 5782 5782 5782 5781 5781 5782 5783 5787 5787 5790 5795 5800 5804 5805 5812 5815 5818 5821 5824 5824 5825 5827 5829 5828 5830 5828 5827 5828 5826 5824 5823 5822 5820 5819 5819 5816 5815 5813 5814 5815 5815 5817 5821
Wind_Speed
15 13 11 9 8 7 7 6 5 5 5 6 7 8 8 8 8 5 4 3 2 2 2 2 4 4 2 3 4 5 5 5 12 11 7 3 2 1 4 3 3 6 8 8 10
16 15 13 11 11 11 10 11 10 8 7 7 7 9 9 9 10 8 5 5 4 3 2 2 3 3 3 2 3 4 3 4 12 12 13 6 2 2 2 1 4 5 7 10 9
15 15 13 12 11 11 11 12 12 12 11 10 9 8 9 10 11 10 8 7 7 4 3 3 3 1 3 2 4 5 4 6 9 15 6 5 3 1 0 3 7 7 6 8 8
14 14 14 12 12 12 12 13 14 14 14 13 12 11 10 10 11 11 10 9 8 6 5 6 5 3 3 1 4 2 2 3 6 13 13 7 6 2 1 4 6 9 7 5 7
11 13 14 14 13 13 14 15 16 17 17 16 15 12 12 13 12 12 11 10 8 7 6 8 7 6 5 4 5 3 3 3 2 14 13 9 6 4 2 5 7 9 6 8 6
8 11 13 13 13 13 14 16 18 20 20 19 18 17 14 12 13 13 12 10 8 7 8 10 9 8 8 5 7 2 3 3 2 5 22 12 10 5 1 5 7 8 6 5 6
9 9 11 12 11 12 13 15 18 19 20 19 18 16 13 11 11 11 12 10 10 8 9 12 10 11 10 8 7 3 2 2 5 3 6 13 8 7 3 4 6 7 7 4 5
10 10 9 10 9 10 12 16 20 23 23 20 17 14 11 11 12 12 10 8 8 9 10 11 11 10 10 9 9 6 3 2 3 6 8 9 10 11 6 2 4 5 6 5 4
12 12 11 11 10 10 12 15 20 24 26 22 16 13 12 12 11 11 10 8 6 8 11 9 10 11 10 9 8 8 7 6 5 6 8 10 6 13 9 10 7 4 6 5 4
15 15 13 13 11 12 12 15 19 24 27 22 16 13 12 12 12 11 10 9 8 7 12 11 11 11 10 12 9 11 9 6 7 8 6 7 6 6 12 6 6 7 5 7 5
17 16 16 15 15 14 14 15 18 22 27 22 18 15 14 12 10 8 10 10 10 9 14 15 13 11 12 15 17 14 10 7 7 7 5 5 9 6 6 11 7 9 8 4 8
17 17 17 17 16 16 15 15 15 18 25 24 18 17 14 11 8 7 8 10 12 13 16 16 15 15 12 14 16 16 13 11 10 6 1 5 6 7 9 9 10 6 9 10 11
15 16 17 17 18 17 16 15 15 17 21 25 20 19 12 9 7 6 5 8 12 16 18 18 18 14 14 14 16 14 14 12 12 11 7 6 8 10 10 8 9 11 5 12 8
15 16 17 17 18 17 17 17 15 15 19 21 20 17 13 8 5 4 3 5 10 17 20 21 19 16 16 15 16 17 19 17 18 14 10 6 4 11 11 11 10 9 6 7 12
19 17 17 17 18 17 18 17 16 15 17 20 19 15 14 9 6 4 2 4 8 12 15 18 17 13 11 18 22 21 19 17 18 14 15 16 13 15 15 13 11 9 10 8 8
22 21 19 18 17 17 17 17 17 17 17 16 17 15 14 9 6 2 1 3 6 8 11 11 12 14 17 19 19 20 18 17 17 13 9 22 16 12 14 16 15 13 12 12 9
28 26 25 23 20 19 18 17 17 16 16 14 14 13 13 10 5 4 2 3 4 5 6 10 11 15 16 16 15 16 11 4 8 8 7 23 18 18 22 18 15 13 13 14 13
35 33 31 30 28 24 21 19 18 17 17 15 12 11 10 9 7 3 2 2 4 6 7 8 8 12 14 13 9 14 10 10 10 8 11 26 20 14 19 21 20 19 19 17 17
26 30 34 35 34 30 26 23 19 19 18 17 13 10 8 8 7 6 3 3 3 3 7 7 11 7 7 7 9 10 8 10 11 13 13 13 18 19 18 20 19 21 20 18 16
22 22 24 27 30 32 31 26 24 22 20 19 16 11 8 8 7 8 6 5 6 7 7 9 8 9 9 8 8 9 11 8 10 9 12 10 16 12 18 20 18 19 18 18 16
24 22 21 25 27 28 27 28 28 26 24 22 21 16 13 13 10 9 10 9 9 10 11 12 10 14 14 14 13 12 14 14 14 15 12 12 12 19 15 16 16 18 20 20 17
24 22 23 23 25 25 28 26 29 30 26 26 24 22 18 16 14 13 11 11 13 14 14 15 11 12 18 19 19 19 18 18 16 14 18 18 17 24 18 17 18 19 20 21 20
21 21 21 21 23 25 26 28 30 32 30 27 27 27 24 20 17 15 14 18 16 16 17 17 14 13 16 18 19 21 21 23 23 21 21 20 14 28 23 25 23 23 23 25 25
21 20 21 22 21 24 26 30 30 32 31 30 30 29 27 24 21 18 17 17 17 17 16 16 15 17 16 20 22 22 22 23 25 21 20 20 22 26 29 29 30 29 27 25 27
28 27 27 25 23 22 24 26 30 32 35 32 33 34 31 28 24 22 19 20 16 15 13 13 16 18 20 21 21 23 22 23 23 26 29 28 31 33 31 30 32 31 29 27 28
29 31 31 30 28 26 26 26 29 34 35 36 39 38 36 31 30 22 20 19 19 16 16 15 16 21 18 20 20 20 20 23 28 26 28 27 27 30 26 30 32 32 32 31 30
31 33 34 33 33 32 33 30 31 32 38 41 40 41 40 41 32 30 27 23 21 21 19 19 16 18 15 24 22 22 21 24 27 25 26 25 24 25 24 26 28 31 33 33 32
Wind_Direction
43 43 42 38 35 27 17 10 357 336 320 315 311 310 314 306 296 292 276 291 296 318 334 352 352 341 318 286 304 338 311 312 218 209 184 182 170 194 342 345 175 164 172 151 165
36 39 41 44 41 39 36 33 29 20 4 343 326 313 310 301 294 294 281 270 256 263 290 328 330 335 317 314 337 339 312 313 219 200 190 154 111 81 314 86 173 154 167 149 155
34 32 31 34 36 36 37 37 33 28 19 10 358 339 324 314 301 292 282 270 257 241 235 271 262 272 305 318 296 312 316 317 210 197 209 168 97 64 14 129 160 135 138 138 139
33 33 31 29 33 38 37 35 29 20 12 3 355 341 325 312 297 287 281 265 254 236 200 238 242 227 260 221 274 285 325 5 219 216 218 208 211 291 72 115 156 136 135 140 141
24 25 28 27 31 38 36 29 21 14 5 357 349 342 327 312 302 286 275 267 249 233 203 223 223 222 234 243 251 302 332 287 271 203 195 193 181 187 104 104 138 129 143 140 138
6 12 15 17 24 31 29 21 14 6 357 347 339 333 329 319 303 287 275 262 253 226 199 220 220 217 214 224 210 271 20 94 164 199 201 201 183 198 149 132 142 148 152 148 145
350 349 5 7 20 24 24 22 14 4 353 339 328 320 320 311 302 291 280 265 249 230 208 217 214 214 215 212 208 198 278 78 140 112 201 209 168 167 186 157 151 199 192 168 140
336 331 331 348 356 6 10 12 7 2 354 340 326 315 312 304 299 292 282 270 248 222 206 215 211 209 210 207 199 187 201 215 190 171 152 150 164 180 172 172 153 199 197 196 142
313 319 310 312 331 340 355 358 359 1 354 343 332 315 309 304 295 286 274 261 252 214 202 211 208 205 205 205 193 189 207 220 211 191 164 148 175 204 202 228 254 207 204 196 176
299 304 306 295 303 320 335 345 354 359 356 349 343 330 320 310 294 279 264 241 231 214 204 205 211 204 208 173 194 200 204 219 214 201 194 192 208 205 197 200 245 191 194 193 202
296 297 298 298 289 298 313 334 349 356 356 351 346 340 327 313 300 280 253 226 218 201 194 202 198 199 221 199 200 195 205 214 206 189 199 223 238 234 237 237 217 225 227 157 204
292 290 289 290 290 288 303 320 336 348 354 351 345 335 322 321 302 280 249 222 206 196 194 199 200 210 202 205 204 206 206 213 191 155 194 270 268 255 247 251 262 265 243 221 198
297 293 288 287 289 291 298 309 325 338 347 351 340 335 331 323 314 288 251 218 199 197 204 201 208 207 199 201 203 208 208 205 212 235 269 259 279 279 271 256 259 285 313 216 197
302 297 293 289 288 290 296 302 314 324 333 344 345 338 338 331 330 328 262 212 210 202 206 210 217 213 207 203 205 211 217 219 229 239 248 250 277 274 276 276 284 293 278 254 230
301 301 298 296 293 293 293 299 304 312 320 334 345 334 341 344 341 348 309 207 202 205 207 215 220 219 208 205 209 221 232 237 244 240 233 246 254 266 269 270 262 280 301 287 278
293 294 297 297 295 293 292 293 296 302 305 324 338 334 332 331 336 339 352 212 202 203 203 208 204 198 197 209 218 231 241 243 248 253 265 260 233 277 258 262 268 267 280 300 310
282 286 288 290 292 291 290 287 285 288 297 308 327 334 330 326 318 328 305 250 200 203 213 204 192 193 196 206 218 225 234 276 298 292 269 258 258 220 252 255 263 273 269 274 281
274 275 276 278 280 281 282 279 277 280 281 289 306 318 322 318 296 295 290 276 261 226 202 197 230 210 204 197 213 212 203 226 267 264 251 267 261 255 249 257 262 272 272 271 274
278 271 269 269 271 272 270 271 268 268 270 275 283 294 301 299 291 280 243 211 222 217 171 196 210 225 204 192 215 240 227 234 258 284 261 254 272 263 258 259 258 271 270 262 261
286 280 276 273 270 268 264 263 259 258 258 260 266 265 259 267 281 277 247 229 220 229 225 213 222 232 245 251 243 237 238 276 296 270 268 270 274 249 264 254 254 256 257 258 257
277 279 275 271 271 272 267 258 256 252 249 250 253 245 234 238 246 251 255 243 233 227 228 232 218 268 258 255 243 262 263 258 243 250 267 276 281 268 262 261 242 239 245 252 251
278 274 273 272 271 270 267 258 254 250 245 245 248 248 237 234 232 235 245 234 239 233 228 231 231 240 240 254 253 251 253 254 258 274 288 261 256 270 268 259 256 246 246 248 251
281 277 276 275 275 270 268 260 254 251 244 242 242 243 244 236 235 240 236 247 246 242 238 242 236 252 290 281 266 258 249 251 256 261 259 268 263 274 266 265 259 253 244 247 248
291 285 279 281 276 268 265 261 252 250 245 240 240 243 243 242 243 243 249 250 252 255 257 248 231 238 227 238 231 256 258 267 266 264 263 261 264 263 272 259 261 258 252 243 245
285 284 284 283 280 275 264 261 250 245 243 237 237 239 239 239 243 248 246 258 262 268 270 263 254 252 245 250 248 253 263 270 268 268 270 270 272 273 262 264 257 255 252 247 242
286 282 280 278 277 272 264 258 252 245 238 236 232 233 237 236 232 236 247 245 261 258 264 270 250 255 254 255 260 264 274 278 279 281 279 276 273 272 271 267 255 248 248 248 242
288 281 278 276 273 270 266 258 252 246 236 234 235 234 232 235 236 237 245 236 247 257 257 264 247 259 255 262 266 275 283 275 277 276 274 272 273 278 274 269 257 249 248 248 242